Radiation Dose at Monitoring Post of Fukushima Daini Nuclear Power Station
Date,Time,MP-1(microSv/h),MP-2(microSv/h),MP-3(microSv/h),MP-4(microSv/h),MP-5(microSv/h),MP-6(microSv/h),MP-7(microSv/h),Wind Direction,Wind Velocity(m/s),Rain
2020/01/19,00:00,0.180,0.161,0.274,0.254,0.251,0.138,0.085,northwest,8.2,No
2020/01/19,00:10,0.181,0.161,0.274,0.254,0.251,0.139,0.085,northwest,7.4,No
2020/01/19,00:20,0.181,0.161,0.274,0.252,0.251,0.138,0.086,northwest,7.7,No
2020/01/19,00:30,0.180,0.162,0.274,0.253,0.251,0.137,0.085,north-northwest,7.0,No
2020/01/19,00:40,0.180,0.161,0.273,0.253,0.251,0.138,0.085,northwest,7.4,No
2020/01/19,00:50,0.181,0.161,0.274,0.253,0.251,0.139,0.085,northwest,7.8,No
2020/01/19,01:00,0.181,0.161,0.274,0.253,0.251,0.139,0.085,northwest,8.1,No
2020/01/19,01:10,0.180,0.162,0.275,0.252,0.252,0.139,0.085,north-northwest,7.6,No
2020/01/19,01:20,0.182,0.161,0.273,0.253,0.252,0.139,0.085,northwest,6.7,No
2020/01/19,01:30,0.181,0.162,0.273,0.254,0.253,0.139,0.085,northwest,6.2,No
2020/01/19,01:40,0.181,0.160,0.273,0.253,0.250,0.138,0.085,northwest,6.6,No
2020/01/19,01:50,0.181,0.162,0.274,0.253,0.250,0.139,0.085,northwest,6.5,No
2020/01/19,02:00,0.181,0.162,0.275,0.254,0.250,0.138,0.085,northwest,6.2,No
2020/01/19,02:10,0.180,0.162,0.273,0.253,0.252,0.139,0.086,northwest,6.1,No
2020/01/19,02:20,0.181,0.161,0.274,0.253,0.251,0.139,0.085,north-northwest,6.8,No
2020/01/19,02:30,0.180,0.162,0.274,0.252,0.252,0.138,0.085,north-northwest,7.7,No
2020/01/19,02:40,0.181,0.162,0.274,0.254,0.252,0.140,0.086,north-northwest,8.1,No
2020/01/19,02:50,0.181,0.163,0.274,0.253,0.252,0.139,0.085,north-northwest,7.7,No
2020/01/19,03:00,0.181,0.162,0.274,0.253,0.252,0.139,0.086,northwest,7.4,No
2020/01/19,03:10,0.182,0.161,0.275,0.254,0.251,0.139,0.085,north-northwest,7.3,No
2020/01/19,03:20,0.181,0.162,0.274,0.253,0.251,0.139,0.085,northwest,7.4,No
2020/01/19,03:30,0.181,0.163,0.275,0.254,0.251,0.139,0.085,north-northwest,7.4,No
2020/01/19,03:40,0.181,0.162,0.274,0.254,0.251,0.139,0.086,north-northwest,7.4,No
2020/01/19,03:50,0.181,0.162,0.273,0.253,0.251,0.139,0.086,north-northwest,7.3,No
2020/01/19,04:00,0.181,0.162,0.275,0.254,0.252,0.139,0.085,northwest,7.5,No
2020/01/19,04:10,0.181,0.162,0.273,0.254,0.252,0.139,0.086,north-northwest,7.0,No
2020/01/19,04:20,0.181,0.162,0.274,0.255,0.251,0.140,0.086,northwest,7.9,No
2020/01/19,04:30,0.182,0.161,0.276,0.254,0.252,0.140,0.086,north-northwest,8.1,No
2020/01/19,04:40,0.182,0.162,0.275,0.254,0.252,0.139,0.085,northwest,8.1,No
2020/01/19,04:50,0.182,0.162,0.274,0.255,0.251,0.139,0.086,northwest,7.6,No
2020/01/19,05:00,0.181,0.161,0.274,0.254,0.251,0.139,0.086,northwest,7.6,No
2020/01/19,05:10,0.181,0.162,0.275,0.253,0.251,0.139,0.086,northwest,7.5,No
2020/01/19,05:20,0.180,0.162,0.275,0.254,0.251,0.139,0.085,northwest,7.3,No
2020/01/19,05:30,0.182,0.162,0.276,0.252,0.252,0.139,0.085,northwest,6.7,No
2020/01/19,05:40,0.182,0.162,0.275,0.254,0.251,0.139,0.086,northwest,6.4,No
2020/01/19,05:50,0.182,0.162,0.274,0.254,0.251,0.139,0.086,northwest,7.3,No
2020/01/19,06:00,0.181,0.163,0.274,0.253,0.252,0.139,0.086,northwest,8.8,No
2020/01/19,06:10,0.181,0.162,0.275,0.253,0.251,0.139,0.086,northwest,8.7,No
2020/01/19,06:20,0.181,0.162,0.275,0.254,0.251,0.140,0.085,northwest,9.6,No
2020/01/19,06:30,0.181,0.162,0.274,0.255,0.252,0.139,0.086,northwest,9.8,No
2020/01/19,06:40,0.182,0.161,0.275,0.254,0.251,0.139,0.085,northwest,9.2,No
2020/01/19,06:50,0.181,0.162,0.275,0.255,0.251,0.140,0.085,northwest,8.4,No
2020/01/19,07:00,0.181,0.162,0.275,0.253,0.251,0.139,0.085,northwest,8.4,No
2020/01/19,07:10,0.180,0.161,0.274,0.253,0.253,0.139,0.086,north-northwest,8.3,No
2020/01/19,07:20,0.181,0.161,0.275,0.254,0.251,0.139,0.086,northwest,8.1,No
2020/01/19,07:30,0.181,0.161,0.274,0.254,0.252,0.139,0.085,northwest,8.1,No
2020/01/19,07:40,0.181,0.161,0.274,0.253,0.251,0.139,0.086,northwest,7.9,No
2020/01/19,07:50,0.181,0.162,0.274,0.254,0.251,0.140,0.086,northwest,7.0,No
2020/01/19,08:00,0.181,0.162,0.277,0.254,0.251,0.139,0.085,northwest,6.7,No
2020/01/19,08:10,0.180,0.161,0.274,0.254,0.252,0.139,0.086,northwest,6.7,No
2020/01/19,08:20,0.182,0.161,0.276,0.253,0.252,0.139,0.085,northwest,6.3,No
2020/01/19,08:30,0.181,0.162,0.275,0.252,0.252,0.139,0.085,north-northwest,6.2,No
2020/01/19,08:40,0.182,0.162,0.275,0.254,0.251,0.139,0.085,north-northwest,6.7,No
2020/01/19,08:50,0.181,0.161,0.275,0.252,0.252,0.138,0.086,north-northwest,5.5,No
2020/01/19,09:00,0.179,0.161,0.275,0.252,0.251,0.139,0.085,north-northwest,5.4,No
2020/01/19,09:10,0.182,0.162,0.275,0.253,0.250,0.138,0.085,north-northwest,4.7,No
2020/01/19,09:20,0.181,0.161,0.274,0.252,0.251,0.138,0.085,north-northwest,4.7,No
2020/01/19,09:30,0.182,0.161,0.273,0.254,0.252,0.139,0.085,north-northwest,4.5,No
2020/01/19,09:40,0.181,0.161,0.274,0.253,0.252,0.138,0.085,north-northwest,4.5,No
2020/01/19,09:50,0.181,0.162,0.275,0.254,0.251,0.138,0.086,north-northwest,3.8,No
2020/01/19,10:00,0.181,0.161,0.274,0.253,0.252,0.140,0.084,north-northwest,3.2,No
2020/01/19,10:10,0.180,0.161,0.274,0.252,0.252,0.138,0.085,north,3.0,No
2020/01/19,10:20,0.181,0.161,0.275,0.252,0.251,0.139,0.085,north-northwest,4.0,No
2020/01/19,10:30,0.180,0.162,0.273,0.252,0.251,0.139,0.085,north-northwest,3.4,No
2020/01/19,10:40,0.180,0.161,0.273,0.254,0.250,0.139,0.086,north-northwest,3.8,No
2020/01/19,10:50,0.180,0.161,0.275,0.255,0.253,0.139,0.086,north,2.8,No
2020/01/19,11:00,0.180,0.160,0.274,0.251,0.251,0.139,0.086,north,3.1,No
2020/01/19,11:10,0.180,0.161,0.274,0.253,0.251,0.138,0.085,north,4.4,No
2020/01/19,11:20,0.180,0.161,0.273,0.252,0.250,0.138,0.084,north,6.0,No
2020/01/19,11:30,0.180,0.162,0.274,0.254,0.251,0.139,0.085,north-northeast,5.8,No
2020/01/19,11:40,0.181,0.160,0.274,0.253,0.253,0.139,0.085,north-northeast,7.0,No
2020/01/19,11:50,0.180,0.162,0.272,0.254,0.251,0.140,0.086,north-northeast,7.7,No
2020/01/19,12:00,0.181,0.161,0.274,0.253,0.252,0.139,0.085,north-northeast,7.1,Yes
2020/01/19,12:10,0.182,0.161,0.272,0.254,0.250,0.140,0.086,north-northeast,5.9,No
2020/01/19,12:20,0.180,0.162,0.273,0.254,0.251,0.139,0.085,north-northeast,6.4,No
2020/01/19,12:30,0.180,0.162,0.273,0.253,0.251,0.139,0.084,northeast,4.9,No
2020/01/19,12:40,0.181,0.161,0.273,0.252,0.251,0.139,0.085,northeast,4.4,No
2020/01/19,12:50,0.181,0.162,0.273,0.254,0.253,0.140,0.085,northeast,5.1,No
2020/01/19,13:00,0.181,0.162,0.274,0.254,0.252,0.139,0.085,northeast,4.5,No
2020/01/19,13:10,0.181,0.161,0.274,0.254,0.251,0.138,0.085,northeast,5.3,No
2020/01/19,13:20,0.181,0.160,0.274,0.253,0.252,0.139,0.086,northeast,4.4,No
2020/01/19,13:30,0.180,0.161,0.274,0.254,0.252,0.138,0.085,northeast,4.7,No
2020/01/19,13:40,0.180,0.161,0.274,0.254,0.251,0.139,0.085,northeast,3.4,No
2020/01/19,13:50,0.181,0.161,0.272,0.254,0.252,0.139,0.085,northeast,3.3,No
2020/01/19,14:00,0.180,0.162,0.273,0.253,0.251,0.139,0.085,northeast,2.7,No
2020/01/19,14:10,0.179,0.162,0.274,0.254,0.253,0.139,0.085,northeast,2.6,No
2020/01/19,14:20,0.182,0.162,0.274,0.255,0.251,0.139,0.085,northeast,2.4,No
2020/01/19,14:30,0.180,0.162,0.275,0.254,0.251,0.139,0.085,east-northeast,2.7,No
2020/01/19,14:40,0.180,0.161,0.273,0.253,0.253,0.139,0.086,east-northeast,2.8,No
2020/01/19,14:50,0.181,0.161,0.274,0.254,0.252,0.139,0.085,east-northeast,2.7,No
2020/01/19,15:00,0.180,0.162,0.274,0.255,0.251,0.139,0.085,east,2.2,No
2020/01/19,15:10,0.180,0.162,0.275,0.254,0.252,0.140,0.085,east,1.5,No
2020/01/19,15:20,0.182,0.161,0.275,0.254,0.251,0.139,0.086,southeast,1.2,No
2020/01/19,15:30,0.181,0.161,0.273,0.254,0.252,0.139,0.086,east,0.7,No
2020/01/19,15:40,0.180,0.162,0.275,0.254,0.253,0.139,0.086,east-southeast,0.8,No
2020/01/19,15:50,0.180,0.161,0.273,0.255,0.252,0.139,0.086,east-southeast,1.1,No
2020/01/19,16:00,0.180,0.161,0.273,0.253,0.254,0.140,0.085,east-southeast,1.2,No
2020/01/19,16:10,0.180,0.162,0.274,0.255,0.251,0.139,0.085,-,CALM,No
2020/01/19,16:20,0.181,0.162,0.274,0.253,0.252,0.139,0.085,west-southwest,1.0,No
2020/01/19,16:30,0.181,0.162,0.274,0.254,0.252,0.139,0.086,west-southwest,0.7,No
2020/01/19,16:40,0.181,0.161,0.275,0.254,0.252,0.140,0.086,west-southwest,1.4,No
2020/01/19,16:50,0.181,0.163,0.274,0.254,0.252,0.139,0.086,southwest,1.5,No
2020/01/19,17:00,0.182,0.161,0.274,0.255,0.252,0.139,0.084,southwest,1.5,No
2020/01/19,17:10,0.181,0.161,0.273,0.254,0.253,0.139,0.086,southwest,1.6,No
2020/01/19,17:20,0.181,0.161,0.275,0.255,0.251,0.139,0.085,-,CALM,No
2020/01/19,17:30,0.181,0.161,0.275,0.255,0.252,0.138,0.085,-,CALM,No
2020/01/19,17:40,0.182,0.161,0.273,0.255,0.253,0.139,0.085,southwest,1.3,No
2020/01/19,17:50,0.181,0.162,0.274,0.255,0.253,0.139,0.085,southwest,1.8,No
2020/01/19,18:00,0.181,0.162,0.275,0.255,0.252,0.139,0.085,south-southwest,0.8,No
2020/01/19,18:10,0.181,0.162,0.274,0.254,0.252,0.139,0.085,south,1.9,No
2020/01/19,18:20,0.181,0.162,0.273,0.254,0.252,0.139,0.085,south-southeast,1.4,No
2020/01/19,18:30,0.181,0.162,0.274,0.254,0.253,0.140,0.086,southeast,1.3,No
2020/01/19,18:40,0.182,0.162,0.274,0.255,0.251,0.138,0.085,south-southeast,0.9,No
2020/01/19,18:50,0.182,0.162,0.275,0.254,0.252,0.139,0.085,south,0.8,No
2020/01/19,19:00,0.180,0.161,0.275,0.253,0.253,0.139,0.086,south,0.9,No
2020/01/19,19:10,0.182,0.162,0.274,0.256,0.251,0.139,0.086,south,1.6,No
2020/01/19,19:20,0.181,0.161,0.275,0.256,0.253,0.139,0.086,south,2.5,No
2020/01/19,19:30,0.181,0.162,0.275,0.254,0.251,0.139,0.085,south,2.9,No
2020/01/19,19:40,0.181,0.161,0.274,0.255,0.251,0.139,0.086,south,3.1,No
2020/01/19,19:50,0.180,0.161,0.275,0.255,0.252,0.140,0.085,south,2.5,No
2020/01/19,20:00,0.181,0.163,0.273,0.255,0.252,0.139,0.086,southwest,1.4,No
2020/01/19,20:10,0.181,0.162,0.275,0.255,0.251,0.139,0.086,south-southwest,3.6,No
2020/01/19,20:20,0.181,0.162,0.275,0.255,0.253,0.140,0.085,southwest,5.1,No
2020/01/19,20:30,0.181,0.162,0.275,0.253,0.252,0.139,0.086,south-southwest,4.6,No
2020/01/19,20:40,0.181,0.163,0.275,0.255,0.253,0.139,0.085,south-southwest,4.6,No
2020/01/19,20:50,0.182,0.162,0.275,0.256,0.252,0.139,0.086,south,5.4,No
2020/01/19,21:00,0.181,0.162,0.274,0.255,0.252,0.140,0.086,south,5.2,No
2020/01/19,21:10,0.182,0.163,0.275,0.255,0.252,0.140,0.086,south-southwest,5.6,No
2020/01/19,21:20,0.182,0.162,0.275,0.255,0.252,0.140,0.085,south-southwest,6.6,No
2020/01/19,21:30,0.181,0.162,0.275,0.256,0.254,0.139,0.086,south-southwest,8.1,No
2020/01/19,21:40,0.181,0.162,0.275,0.254,0.250,0.139,0.085,south-southwest,8.7,No
2020/01/19,21:50,0.182,0.162,0.274,0.254,0.252,0.139,0.085,south-southwest,8.1,No
2020/01/19,22:00,0.181,0.162,0.274,0.254,0.253,0.139,0.086,south-southwest,7.0,No
2020/01/19,22:10,0.182,0.162,0.274,0.255,0.252,0.139,0.086,south-southwest,5.6,No
2020/01/19,22:20,0.181,0.163,0.274,0.255,0.252,0.139,0.086,southwest,6.4,No
2020/01/19,22:30,0.181,0.162,0.275,0.254,0.253,0.140,0.086,south-southwest,6.5,No
2020/01/19,22:40,0.182,0.161,0.274,0.254,0.252,0.139,0.085,south-southwest,5.3,No
2020/01/19,22:50,0.181,0.162,0.276,0.255,0.252,0.140,0.086,south,5.5,No
2020/01/19,23:00,0.181,0.162,0.274,0.254,0.252,0.138,0.086,south-southwest,6.3,No
2020/01/19,23:10,0.182,0.162,0.274,0.256,0.252,0.139,0.085,south-southwest,6.4,No
2020/01/19,23:20,0.181,0.161,0.275,0.255,0.252,0.139,0.085,south-southwest,6.3,No
2020/01/19,23:30,0.182,0.161,0.274,0.255,0.251,0.139,0.086,south-southwest,7.0,No
2020/01/19,23:40,0.182,0.161,0.273,0.255,0.252,0.139,0.085,south,7.0,No
2020/01/19,23:50,0.182,0.161,0.274,0.255,0.253,0.140,0.086,south-southwest,5.2,No
